SICH 2

Satellite information

Favourite Embed

Satellite Type and Status

PAYLOADIN ORBIT

Key statistics

Satellite SICH 2 at a glance.

Uptime

5071

Days in orbit

Revolutions

≈ 14.6

Per day

Orbit

SSO

Sun Synchronous Orbit

Inclination

97.8

Latest

Satellite identification and parameters

Extended collection of information and parameters for SICH 2.

Object identification

Identified? True

Debris? False

Object name: SICH 2

International designator: 2011-044G

Object number (NORAD): 37794

Object ID (CCSDS): 37794

Country: UKRAINE (UKR)

Current information (Y/N): Y

RCS size: MEDIUM

Orbital parameters

Period: 98.296 minutes

Inclination: 97.8031 deg

SMA: 7055.322 km

Apoapsis: 685.517 km

Periapsis: 668.857 km

RAAN: 177.9128 deg

Eccentricy: 0.0011807

Argument of periapsis: 188.079 deg

Mean anomaly: 285.095 deg

Mean motion: 14.64965924 rev/day

Mean motion (dot): 0.00000453 rev/day2

B* drag term: 0.00009297 1/REarth

Two-line elements (TLE)

Creation date: July 4, 2025, 2:36 p.m.

Reference frame: TEME

Reference center: EARTH

Epoch: July 4, 2025, 1:38 p.m. UTC

TLE line 0: 0 SICH 2

TLE line 1: 1 37794U 11044G 25185.56834556 .00000453 00000-0 92970-4 0 9996

TLE line 2: 2 37794 97.8031 177.9128 0011807 188.0790 285.0950 14.64965924740702

Live tracking on map

Real-time ground track for satellite SICH 2.

In-orbit conjunctions

There are no conjunctions computed for SICH 2, at the moment. Check back to stay up to date, as we update our databases every day.

Go to all conjunctions

Associated space launch

SICH 2 was lifted into orbit during the mission ‘Dnepr 1 | Sich-2’, on board a Dnepr space rocket.

The launch took place on Aug. 17, 2011, 7:12 a.m. from 370/13.

For more information about the launch, click the button.

Launch to space Dnepr 1 | Sich-2
Dnepr 1 | Sich-2

Agency: N/A

Status: Launch Successful

Launch date: Aug. 17, 2011, 7:12 a.m. UTC

Rocket: Dnepr

Launch pad: 370/13

Location: Dombarovskiy, Russian Federation

...

Latest news about this satellite

There are no fresh news available about this satellite. Check back as we update our databases every day.


Newsletter sign-up

Weekly statistics, charts and insights to help you stay on top of the space industry.